Temp
-15 -15 -15 -15 -15 -15 -16 -16 -15 -15 -15 -16 -15 -15 -15 -15 -15 -15 -15 -15 -15 -15 -15 -15 -15 -15 -15 -14 -14 -14 -14 -15 -15 -15 -14 -14 -14 -14 -14 -14 -14 -14
-15 -15 -15 -15 -15 -15 -16 -16 -15 -15 -15 -15 -15 -15 -15 -15 -15 -15 -15 -15 -15 -15 -15 -15 -15 -15 -15 -15 -14 -15 -15 -15 -15 -15 -15 -14 -14 -14 -14 -14 -15 -15
-15 -15 -15 -15 -15 -15 -15 -15 -15 -15 -15 -15 -15 -15 -15 -15 -15 -15 -15 -15 -15 -15 -15 -15 -15 -15 -15 -15 -15 -15 -15 -15 -15 -15 -15 -15 -15 -15 -15 -15 -15 -15
-15 -15 -15 -15 -15 -15 -15 -15 -16 -16 -15 -15 -15 -15 -15 -15 -15 -15 -15 -15 -15 -15 -15 -15 -15 -15 -15 -15 -15 -15 -15 -15 -15 -15 -15 -15 -15 -15 -15 -15 -15 -15
-15 -15 -15 -15 -15 -15 -15 -16 -16 -16 -16 -16 -16 -16 -15 -15 -15 -15 -15 -15 -15 -15 -15 -15 -15 -15 -15 -15 -15 -15 -15 -15 -15 -15 -15 -15 -15 -15 -15 -15 -15 -15
-15 -15 -15 -15 -15 -15 -15 -16 -16 -16 -16 -16 -16 -16 -16 -16 -15 -15 -15 -15 -15 -15 -15 -15 -15 -15 -15 -15 -15 -15 -15 -15 -15 -15 -15 -16 -16 -16 -16 -16 -16 -16
-16 -16 -15 -15 -15 -15 -15 -16 -16 -16 -16 -16 -16 -16 -16 -16 -16 -16 -15 -15 -15 -15 -15 -15 -15 -15 -15 -15 -15 -15 -15 -15 -16 -16 -16 -16 -16 -16 -16 -16 -16 -16
-16 -16 -16 -16 -15 -15 -16 -16 -16 -16 -16 -16 -17 -16 -16 -16 -16 -16 -16 -16 -15 -15 -15 -15 -15 -15 -15 -15 -15 -15 -15 -16 -16 -16 -16 -16 -16 -16 -16 -16 -16 -16
-16 -16 -16 -16 -16 -16 -16 -16 -16 -16 -16 -16 -17 -16 -16 -16 -16 -16 -16 -16 -16 -15 -15 -15 -15 -15 -15 -15 -15 -15 -15 -16 -16 -16 -16 -16 -16 -16 -16 -16 -16 -16
-16 -16 -16 -16 -16 -16 -16 -16 -16 -16 -16 -17 -17 -16 -16 -16 -16 -16 -16 -16 -16 -16 -16 -15 -15 -16 -16 -16 -16 -16 -16 -16 -16 -16 -16 -16 -16 -16 -16 -16 -16 -16
-16 -16 -16 -16 -16 -16 -16 -16 -16 -16 -17 -17 -17 -16 -16 -16 -16 -16 -16 -16 -16 -16 -16 -16 -16 -16 -16 -16 -16 -16 -16 -16 -16 -16 -16 -17 -17 -17 -17 -17 -17 -17
-16 -16 -16 -16 -16 -16 -16 -16 -16 -17 -17 -17 -17 -17 -17 -17 -17 -16 -16 -16 -16 -16 -16 -16 -16 -16 -16 -16 -16 -17 -17 -17 -17 -17 -17 -17 -17 -17 -17 -17 -17 -17
-16 -16 -16 -16 -16 -16 -16 -16 -16 -16 -17 -17 -17 -17 -17 -17 -17 -17 -17 -16 -16 -16 -16 -16 -16 -17 -17 -17 -17 -17 -17 -17 -17 -17 -17 -17 -17 -17 -17 -17 -17 -17
-16 -16 -16 -16 -16 -16 -16 -16 -16 -17 -17 -17 -17 -17 -17 -17 -17 -17 -17 -17 -17 -17 -17 -17 -17 -17 -17 -17 -17 -17 -17 -17 -17 -17 -17 -17 -17 -17 -17 -17 -17 -17
-16 -16 -16 -16 -16 -16 -16 -17 -17 -17 -17 -17 -17 -17 -17 -17 -17 -17 -17 -17 -17 -17 -17 -17 -17 -17 -17 -17 -17 -17 -17 -17 -17 -17 -17 -17 -17 -17 -17 -17 -17 -17
-16 -16 -16 -16 -16 -16 -16 -17 -17 -17 -17 -17 -17 -17 -17 -17 -17 -17 -17 -17 -17 -17 -17 -17 -17 -17 -17 -17 -17 -17 -17 -17 -17 -17 -17 -17 -17 -17 -17 -17 -17 -17
-17 -17 -16 -16 -16 -17 -17 -17 -17 -17 -17 -17 -17 -17 -17 -17 -17 -17 -17 -17 -17 -17 -17 -17 -18 -18 -18 -18 -17 -17 -17 -17 -17 -17 -17 -17 -17 -17 -17 -17 -17 -17
-17 -17 -17 -17 -17 -17 -17 -17 -17 -18 -18 -17 -17 -17 -17 -17 -17 -17 -17 -17 -17 -17 -18 -18 -18 -18 -18 -18 -18 -18 -18 -18 -18 -18 -18 -18 -18 -17 -17 -17 -17 -17
-17 -17 -17 -17 -17 -17 -17 -17 -18 -18 -18 -17 -17 -17 -17 -17 -17 -17 -18 -18 -18 -18 -18 -18 -18 -18 -18 -18 -18 -18 -18 -18 -18 -18 -18 -18 -18 -18 -18 -18 -18 -18
-17 -17 -17 -17 -17 -18 -18 -17 -17 -18 -18 -17 -18 -17 -17 -17 -17 -17 -18 -18 -18 -18 -18 -18 -18 -18 -18 -18 -18 -18 -18 -18 -18 -18 -18 -18 -18 -18 -18 -18 -18 -18
-17 -17 -17 -17 -17 -17 -17 -17 -17 -17 -17 -17 -18 -18 -17 -17 -17 -18 -18 -18 -18 -18 -18 -18 -18 -18 -18 -18 -18 -18 -18 -18 -18 -18 -18 -18 -18 -18 -18 -18 -18 -18
-17 -17 -17 -17 -17 -17 -17 -17 -17 -17 -17 -18 -18 -18 -18 -18 -18 -18 -18 -18 -18 -18 -18 -18 -18 -18 -18 -18 -18 -18 -18 -18 -18 -18 -18 -18 -18 -18 -18 -18 -18 -18
-18 -18 -18 -18 -17 -17 -18 -18 -18 -18 -18 -18 -18 -18 -18 -18 -18 -18 -18 -18 -18 -18 -18 -18 -18 -18 -18 -18 -18 -18 -18 -18 -18 -18 -18 -18 -18 -18 -18 -18 -18 -18
-18 -18 -18 -18 -18 -18 -18 -18 -18 -18 -18 -18 -18 -18 -18 -18 -18 -18 -19 -18 -18 -18 -18 -18 -18 -18 -18 -18 -18 -18 -18 -18 -19 -19 -19 -19 -19 -19 -19 -19 -19 -19
-18 -18 -18 -18 -18 -18 -18 -18 -18 -18 -19 -19 -19 -19 -19 -19 -19 -19 -19 -19 -19 -19 -19 -18 -18 -18 -18 -18 -18 -18 -18 -18 -19 -19 -19 -19 -19 -19 -19 -19 -19 -19
-18 -18 -18 -18 -18 -18 -18 -18 -18 -18 -18 -19 -19 -19 -19 -19 -19 -19 -19 -19 -19 -19 -19 -19 -19 -19 -19 -19 -19 -19 -19 -19 -19 -19 -19 -19 -19 -19 -19 -19 -19 -20
Height
5764 5764 5764 5764 5765 5765 5766 5766 5767 5768 5769 5770 5770 5771 5771 5772 5773 5774 5774 5775 5776 5777 5778 5779 5779 5780 5780 5781 5781 5782 5782 5782 5782 5782 5782 5782 5783 5783 5783 5784 5784 5784
5763 5763 5764 5764 5764 5764 5765 5765 5765 5767 5768 5769 5769 5769 5769 5770 5771 5772 5772 5773 5773 5774 5776 5777 5778 5778 5779 5779 5780 5780 5780 5780 5780 5781 5781 5781 5782 5782 5782 5783 5783 5782
5761 5762 5763 5763 5763 5763 5764 5764 5764 5765 5766 5767 5767 5768 5768 5769 5769 5770 5770 5771 5771 5772 5774 5775 5776 5777 5777 5777 5778 5778 5778 5778 5779 5779 5780 5780 5781 5781 5781 5782 5781 5781
5759 5760 5761 5761 5762 5762 5762 5763 5764 5764 5765 5766 5766 5767 5767 5768 5768 5769 5769 5769 5770 5771 5772 5773 5774 5775 5776 5776 5776 5776 5776 5777 5777 5778 5778 5779 5779 5780 5780 5780 5780 5780
5757 5757 5758 5759 5759 5760 5761 5761 5762 5763 5763 5764 5765 5766 5767 5767 5768 5768 5768 5768 5769 5770 5771 5772 5773 5774 5774 5774 5775 5775 5775 5775 5776 5776 5777 5777 5777 5778 5778 5778 5778 5778
5754 5755 5756 5757 5757 5758 5759 5760 5760 5761 5761 5762 5763 5764 5765 5766 5766 5766 5767 5767 5768 5769 5770 5770 5771 5772 5772 5773 5773 5773 5774 5774 5774 5775 5775 5775 5776 5776 5776 5776 5776 5776
5752 5753 5754 5755 5756 5757 5758 5758 5758 5759 5760 5760 5761 5762 5763 5763 5764 5765 5765 5766 5766 5767 5768 5769 5769 5770 5770 5771 5771 5771 5772 5772 5773 5773 5773 5773 5774 5774 5774 5774 5775 5775
5751 5752 5753 5754 5755 5756 5757 5757 5757 5757 5758 5758 5759 5760 5761 5761 5762 5763 5763 5764 5765 5765 5766 5767 5767 5768 5768 5769 5769 5770 5770 5771 5771 5771 5771 5771 5772 5772 5772 5773 5773 5773
5751 5751 5751 5752 5754 5755 5755 5755 5755 5756 5757 5757 5758 5759 5759 5759 5760 5761 5761 5762 5763 5764 5764 5765 5766 5766 5767 5767 5768 5768 5769 5769 5769 5769 5770 5770 5770 5770 5771 5771 5771 5771
5748 5749 5749 5751 5753 5754 5753 5753 5754 5755 5755 5756 5757 5757 5758 5758 5758 5759 5759 5760 5761 5762 5762 5763 5764 5765 5765 5766 5766 5767 5767 5767 5768 5768 5768 5768 5768 5769 5769 5769 5769 5769
5745 5747 5747 5749 5751 5751 5751 5752 5752 5753 5754 5755 5756 5756 5756 5757 5757 5758 5758 5759 5759 5760 5760 5761 5762 5763 5763 5764 5764 5765 5765 5766 5766 5766 5766 5766 5767 5767 5767 5767 5767 5767
5745 5746 5746 5748 5749 5749 5749 5750 5750 5751 5752 5753 5754 5754 5755 5756 5756 5756 5757 5757 5758 5758 5758 5759 5759 5760 5761 5762 5762 5763 5763 5764 5764 5764 5765 5765 5765 5765 5765 5765 5765 5765
5743 5743 5744 5745 5746 5746 5747 5748 5748 5749 5750 5751 5752 5752 5753 5754 5755 5755 5756 5756 5756 5756 5756 5757 5757 5758 5759 5759 5760 5760 5761 5761 5762 5762 5762 5763 5763 5763 5763 5762 5762 5762
5739 5740 5741 5742 5743 5743 5744 5745 5746 5747 5747 5748 5749 5750 5751 5751 5752 5753 5753 5754 5754 5754 5754 5754 5755 5756 5756 5757 5757 5757 5758 5759 5759 5759 5760 5760 5760 5760 5760 5760 5760 5760
5736 5737 5738 5740 5740 5740 5741 5742 5743 5744 5745 5746 5746 5747 5748 5749 5749 5750 5750 5751 5752 5752 5752 5752 5753 5753 5754 5754 5754 5755 5755 5756 5756 5756 5757 5757 5757 5757 5757 5757 5757 5757
5734 5736 5736 5737 5738 5738 5738 5739 5740 5741 5742 5743 5743 5744 5745 5746 5746 5747 5748 5748 5749 5749 5750 5750 5750 5750 5751 5751 5752 5752 5752 5752 5753 5753 5753 5753 5753 5753 5753 5753 5753 5753
5732 5733 5734 5734 5735 5735 5736 5736 5737 5738 5739 5740 5741 5742 5743 5743 5744 5745 5745 5746 5746 5746 5747 5747 5747 5748 5748 5748 5748 5749 5749 5749 5749 5749 5750 5750 5750 5749 5749 5750 5750 5750
5729 5730 5731 5731 5732 5733 5733 5733 5734 5735 5736 5737 5738 5739 5739 5740 5741 5742 5742 5743 5743 5744 5744 5745 5745 5745 5745 5745 5745 5745 5746 5746 5746 5746 5746 5746 5746 5746 5746 5746 5746 5746
5726 5727 5728 5728 5728 5729 5730 5730 5731 5732 5733 5735 5734 5735 5736 5737 5738 5739 5739 5740 5740 5741 5742 5742 5742 5743 5742 5742 5742 5742 5742 5742 5742 5742 5742 5742 5742 5742 5742 5742 5742 5742
5723 5723 5724 5724 5725 5725 5726 5727 5728 5728 5730 5731 5731 5731 5733 5734 5735 5736 5736 5737 5738 5738 5738 5739 5739 5739 5739 5739 5739 5738 5739 5739 5739 5738 5738 5738 5738 5738 5738 5738 5738 5738
5721 5721 5722 5722 5722 5722 5723 5724 5725 5726 5727 5727 5727 5729 5731 5732 5732 5733 5733 5734 5734 5734 5735 5735 5735 5735 5735 5735 5735 5734 5734 5734 5734 5734 5734 5734 5734 5734 5734 5734 5734 5734
5719 5719 5720 5720 5720 5720 5720 5720 5722 5723 5724 5725 5726 5727 5728 5728 5728 5729 5730 5730 5730 5731 5731 5731 5731 5731 5731 5731 5731 5730 5730 5730 5729 5729 5729 5730 5730 5730 5730 5730 5730 5730
5716 5716 5717 5717 5718 5718 5717 5717 5719 5720 5721 5722 5723 5723 5723 5723 5724 5724 5725 5726 5726 5727 5727 5727 5727 5726 5726 5726 5726 5726 5725 5725 5725 5725 5725 5725 5725 5724 5724 5725 5725 5725
5712 5713 5713 5713 5714 5714 5714 5714 5714 5716 5717 5717 5718 5718 5718 5719 5719 5719 5720 5721 5721 5722 5722 5722 5722 5721 5721 5721 5720 5720 5720 5720 5719 5720 5720 5720 5720 5720 5719 5719 5719 5719
5708 5709 5709 5709 5710 5710 5710 5710 5710 5710 5710 5711 5712 5713 5713 5714 5714 5714 5715 5716 5716 5716 5717 5717 5716 5715 5715 5715 5715 5714 5714 5714 5713 5713 5714 5714 5714 5714 5714 5714 5714 5714
5702 5704 5704 5705 5706 5706 5706 5705 5705 5704 5705 5705 5706 5707 5707 5708 5708 5709 5709 5709 5710 5710 5711 5711 5710 5709 5709 5709 5709 5708 5708 5708 5708 5707 5707 5706 5706 5707 5708 5708 5707 5707
Wind_Speed
7 6 6 8 9 9 10 11 12 10 9 10 11 11 11 12 12 12 13 12 13 14 14 14 14 13 13 13 12 11 11 11 11 11 12 12 13 14 15 15 15 16
10 8 9 9 10 11 11 12 13 11 10 10 10 11 11 11 10 11 12 13 14 13 13 14 15 15 15 15 14 14 14 14 13 13 13 14 14 14 15 15 15 16
12 11 11 10 11 11 12 13 12 11 11 11 10 10 10 9 9 9 11 13 14 13 12 12 13 14 15 15 15 15 15 15 15 15 15 15 15 15 15 15 15 16
14 13 13 12 12 13 13 13 13 13 13 12 11 10 9 8 8 8 10 12 12 12 11 11 12 12 13 13 14 14 14 14 15 16 16 16 16 16 16 15 15 15
17 15 16 15 15 15 15 15 16 16 16 14 12 12 11 10 9 9 10 11 11 10 10 11 10 10 9 10 10 11 11 12 14 15 16 17 17 17 16 16 16 16
20 19 19 19 18 18 17 17 18 19 18 16 15 14 14 13 12 11 11 11 11 11 11 11 10 9 9 9 9 9 10 11 12 13 14 15 16 16 16 16 16 17
21 22 21 21 21 19 18 18 20 21 20 19 18 17 16 14 13 13 13 13 12 12 12 11 11 11 10 10 9 9 10 10 11 12 13 14 14 15 15 16 16 16
21 21 22 22 21 20 19 21 21 21 21 20 19 17 16 15 15 14 14 14 13 13 12 12 11 11 10 10 10 10 10 10 10 11 11 12 13 13 14 14 14 15
21 21 22 23 22 21 22 23 22 21 20 20 18 18 17 16 15 15 14 14 13 13 13 13 12 11 10 10 10 10 10 10 10 10 10 11 11 12 12 12 13 13
22 23 24 24 22 22 24 24 22 20 20 19 18 18 18 16 15 15 14 14 13 13 13 13 12 11 10 10 10 10 10 10 10 10 11 11 11 12 12 13 13 12
24 24 25 24 22 23 25 24 21 19 19 19 19 18 17 16 16 15 15 14 13 13 13 13 12 11 11 11 11 10 10 10 10 10 11 11 12 12 12 12 12 12
24 25 25 24 24 25 26 24 21 20 20 20 19 19 17 17 16 16 16 15 15 14 14 14 13 12 12 11 11 11 10 10 11 11 11 12 12 12 12 13 13 13
24 25 24 24 25 27 27 26 24 22 21 21 20 19 18 17 17 17 17 17 16 15 15 15 14 14 13 13 12 12 12 12 13 13 13 14 14 14 14 15 15 15
25 26 26 25 27 28 27 26 26 25 24 23 21 20 19 18 18 18 19 19 18 17 17 16 16 15 15 14 14 15 15 15 16 16 17 17 17 17 17 17 16 16
24 23 24 25 28 30 28 26 26 27 26 25 24 23 21 20 20 21 21 21 21 20 18 18 18 17 17 16 16 17 17 18 19 19 19 19 18 18 18 17 17 16
19 19 20 23 27 31 29 27 27 28 28 27 26 24 22 22 22 22 22 23 22 22 20 19 19 19 19 19 19 19 20 20 21 21 21 21 20 20 20 19 18 18
18 18 20 23 26 29 29 28 28 28 28 28 27 24 22 22 23 23 24 24 23 23 23 22 21 21 21 21 21 22 22 22 23 23 23 22 22 23 22 22 21 20
21 20 20 23 25 26 26 26 26 27 27 26 25 24 23 23 24 25 25 25 25 25 25 24 24 23 23 24 24 24 24 24 24 24 24 24 24 25 25 25 24 23
25 23 22 22 23 24 25 24 24 26 26 25 25 24 24 25 28 28 28 28 27 27 27 26 26 26 27 27 27 27 26 26 26 26 26 26 26 26 27 28 27 27
27 26 25 24 24 26 27 25 24 24 25 25 25 25 26 29 32 32 30 29 29 29 29 30 30 30 29 29 29 29 29 28 28 29 29 30 30 30 31 31 31 31
28 29 28 27 28 30 30 29 28 27 27 28 27 27 28 31 34 33 32 31 31 32 32 33 32 32 32 32 32 31 31 31 32 32 33 33 34 35 35 35 35 35
29 30 30 30 30 32 33 34 34 33 33 32 30 30 31 33 34 34 34 34 34 34 35 35 35 34 34 34 34 34 35 35 36 36 36 37 38 39 40 40 39 39
28 29 29 29 29 31 33 34 34 35 35 35 33 33 33 35 35 35 36 36 36 37 37 37 38 38 38 38 38 39 39 40 40 40 40 41 42 43 44 45 45 45
29 29 29 29 29 30 33 34 35 36 36 36 35 35 36 37 37 37 37 38 38 39 39 40 41 41 42 42 43 44 44 44 45 44 44 45 45 46 47 48 49 49
31 32 32 31 31 32 33 35 36 38 38 37 37 37 38 39 39 39 39 39 40 41 42 43 44 45 46 47 48 48 49 49 50 50 50 49 48 48 49 50 51 52
34 34 35 35 36 37 39 39 40 41 42 41 39 39 39 40 40 41 42 43 43 44 45 46 47 48 49 49 50 52 53 53 54 55 55 54 53 52 52 52 53 53
Wind_Direction
249 254 255 244 232 228 228 233 240 243 244 246 252 259 263 263 255 246 244 244 241 239 240 244 248 252 254 256 258 259 261 261 262 262 263 264 266 266 265 264 261 260
246 251 259 249 235 233 233 237 244 247 243 241 248 256 260 261 258 245 240 244 247 247 245 247 251 254 256 258 258 258 257 257 257 259 260 263 265 266 266 264 262 260
247 249 249 239 227 227 231 236 239 237 232 230 235 245 250 254 254 242 235 239 246 250 251 250 250 252 254 255 256 256 256 257 259 260 261 261 260 260 259 256 255 254
244 243 238 227 222 225 227 229 230 228 225 223 225 233 241 246 245 236 230 232 238 244 248 250 251 250 250 251 252 253 254 257 260 262 262 262 260 258 256 253 252 251
241 240 234 228 229 230 229 229 230 230 229 227 228 233 240 242 238 231 227 227 231 238 244 248 250 249 248 248 248 249 251 254 258 260 261 261 260 259 257 254 252 250
239 240 239 237 237 236 234 234 236 236 238 239 241 244 247 243 236 232 231 232 233 237 241 244 245 245 247 249 249 249 251 253 256 258 259 259 259 259 258 256 254 252
240 243 244 244 244 243 241 240 241 242 243 245 246 247 245 240 236 235 236 237 237 238 239 242 244 245 247 250 250 249 250 253 257 259 260 260 260 259 258 257 256 254
245 246 246 245 246 248 248 245 244 244 245 245 243 240 238 235 235 237 239 241 242 242 243 245 247 248 249 251 250 249 249 252 256 260 262 262 262 261 260 258 256 254
247 246 246 245 246 249 251 248 247 247 245 241 236 232 232 232 233 236 240 244 246 247 248 249 250 251 251 250 249 250 251 252 254 258 260 261 260 261 260 259 257 256
243 245 247 248 248 250 252 251 250 249 244 237 232 230 232 233 234 236 238 241 244 245 247 248 248 248 248 249 250 251 251 252 252 252 253 254 255 256 257 257 257 256
240 244 247 249 252 253 253 253 252 248 241 235 232 233 235 237 239 239 239 239 239 240 243 244 244 244 246 249 251 252 253 254 253 251 250 251 251 251 251 251 251 252
246 247 248 250 253 256 257 257 255 249 241 236 236 238 240 242 245 246 246 244 241 240 242 244 244 245 245 248 251 255 257 257 256 255 254 253 252 252 253 253 255 259
252 250 252 252 251 253 255 256 256 251 243 239 240 242 244 247 251 253 253 252 250 249 250 250 250 250 249 250 254 258 260 260 260 261 260 259 260 261 262 264 267 270
252 250 253 252 251 252 252 253 254 250 244 240 241 243 246 250 254 256 257 257 256 257 257 256 256 256 256 257 259 263 265 266 267 268 268 268 268 269 270 271 273 275
254 251 253 254 253 255 254 251 250 248 244 241 241 243 246 250 252 254 256 257 257 258 258 258 260 261 261 263 264 267 270 271 272 273 273 272 273 274 275 275 276 279
248 248 256 258 258 259 256 250 248 248 246 243 242 243 245 248 250 252 254 256 257 256 255 256 258 260 262 264 266 269 271 273 274 274 275 275 275 275 275 274 277 281
247 251 257 258 258 259 257 251 248 246 245 245 245 244 246 250 253 255 255 255 255 254 254 255 256 258 261 263 266 268 269 271 273 274 275 276 275 275 275 275 278 282
253 255 253 252 253 253 251 249 248 245 243 245 246 245 249 253 255 254 252 252 252 253 255 256 258 260 261 262 264 265 266 268 270 272 274 275 276 275 274 276 279 281
253 253 249 246 243 242 242 242 243 242 242 244 246 246 251 255 254 252 249 249 251 254 257 259 261 262 262 262 262 263 264 267 269 270 271 272 274 274 274 276 278 279
253 252 251 244 236 236 239 237 234 233 235 240 245 248 251 253 253 252 251 252 255 259 262 263 263 262 261 260 261 261 262 265 267 269 270 270 270 271 272 274 275 276
254 254 254 248 239 237 240 239 236 236 237 242 250 253 253 252 252 253 254 256 260 263 264 264 263 262 261 261 261 261 262 264 266 267 268 269 269 269 269 270 272 275
254 254 253 252 248 245 245 245 244 245 246 250 257 260 257 254 253 254 254 256 259 262 263 264 264 263 263 263 262 263 264 265 266 267 268 269 269 269 269 270 271 274
254 255 255 256 255 252 250 249 249 250 251 254 258 257 254 254 254 254 254 256 258 260 261 263 264 264 264 263 263 264 264 265 266 267 268 269 270 270 271 272 273 275
256 255 255 256 256 254 254 255 257 256 256 257 258 255 252 253 254 254 255 257 259 261 262 263 264 264 264 265 265 265 265 266 267 267 268 269 269 271 272 273 275 276
256 254 253 254 253 253 254 257 260 261 260 261 261 258 255 254 254 254 255 257 260 262 263 263 264 265 264 265 265 266 266 266 267 268 269 269 268 268 268 270 271 272
259 257 256 257 256 254 254 256 257 259 260 262 263 262 260 257 256 255 257 261 263 264 263 264 264 265 265 264 265 265 265 266 267 269 270 271 270 269 268 269 270 271